ROMMA est une association bénévole à but non lucratif. Votre soutien est indispensable : ADHERER à ROMMA ou FAIRE un DON

Briord - (01, Ain)

Bugey (281 m)   Longitude: 05° 29' 13" E   Latitude: 45° 46' 37" N Station partenaire n°15
 

Détail journalier du     <<     >>

Température Precipitation Humidité Pression Vent Dir Rafale Dir. rafale Ensol.
Heure (°C) (mm) (%) (hPa) (km/h) (km/h) (min)
01:00 10.5095102500---0
02:00 10.1095102500---0
03:00 9.7095102500---0
04:00 9.2095102500---0
05:00 8.7095102400---0
06:00 8.80.296102400---0
07:00 9.7096102500---0
08:00 10.3096102500---0
09:00 10.9096102503ONO0
10:00 11.1096102502ONO0
11:00 11.7096102506NO0
12:00 12.709610252ONO13N0
13:00 13.509210242ONO13ONO0
14:00 16.608610231O11OSO0
15:00 19.208310232O10O0
16:00 19.3079102300---0
17:00 20.0081102300---0
18:00 20.6079102306NO5
19:00 20.60801022010O0
20:00 19.5087102200---15
21:00 17.2089102200---15
22:00 15.7092102300---0
23:00 14.4093102300---0
minuit 14.2093102300---0

Graphique du 21-08-2019

 

Serveur OMMA